Weather History for Wausau, WI

Change the Weather History Date:

Friday, November 18, 2011

  Actual Average Record
Temperature  
Mean Temperature 34 °F 31 °F  
Max Temperature 45 °F 39 °F 66 °F (1953)
Min Temperature 23 °F 24 °F 5 °F (1986)
Degree Days  
Heating Degree Days 31 34  
Month to date heating degree days 471 531  
Since 1 July heating degree days 1215 1415  
Cooling Degree Days 0 0  
Month to date cooling degree days 0 0  
Year to date cooling degree days 558 407  
Moisture  
Dew Point 21 °F    
Average Humidity 57    
Maximum Humidity 69    
Minimum Humidity 45    
Precipitation  
Precipitation 0.00 in 0.07 in 0.90 in (1957)
Month to date precipitation 0.73 1.26  
Year to date precipitation 33.38 30.31  
Snow  
Snow 0.00 in 0.20 in 5.50 in (1957)
Month to date snowfall 3.2 2.9  
Since 1 July snowfall 3.2 4.3  
Since 1 September snowfall 3.2 4.3  
Snow Depth 0.00 in    
Sea Level Pressure  
Sea Level Pressure 29.82 in    
Wind  
Wind Speed 9 mph (SSE)    
Max Wind Speed 21 mph    
Max Gust Speed 29 mph    
Visibility 10 miles    
Events      
T = Trace of Precipitation, MM = Missing Value Source: NWS Daily Summary

Daily Weather History Graph

Daily Weather History Graph

Search for Another Location

Airport:

Trip Planner

Search our weather history database for the weather conditions in past years. The results will help you decide how hot, cold, wet, or windy it might be!

Date:

Astronomy

Nov. 18, 2011 Rise Set
Actual Time 6:59 AM CST 4:27 PM CST
Civil Twilight 6:27 AM CST 4:59 PM CST
Nautical Twilight 5:51 AM CST 5:34 PM CST
Astronomical Twilight 5:17 AM CST 6:09 PM CST
Moon No Moon Rise 12:31 PM CST
Length of Visible Light 10h 31m
Length of Day
9h 27m
Waning Gibbous, 49% of the Moon is Illuminated
Nov 18
Waning Gibbous
Nov 25
New
Dec 2
First Quarter
Dec 10
Full
Dec 17
Last Quarter

Hourly Weather History & Observations

Time (CST) Temp. Windchill Dew Point Humidity Pressure Visibility Wind Dir Wind Speed Gust Speed Precip Events Conditions
12:54 AM 23.0 °F 15.8 °F 12.0 °F 63% 30.06 in 10.0 mi SSE 5.8 mph - N/A   Mostly Cloudy
1:54 AM 25.0 °F 17.1 °F 10.9 °F 55% 30.01 in 10.0 mi SE 6.9 mph - N/A   Mostly Cloudy
2:54 AM 27.0 °F 19.5 °F 12.9 °F 56% 29.97 in 10.0 mi SE 6.9 mph - N/A   Mostly Cloudy
3:54 AM 27.0 °F 18.0 °F 14.0 °F 58% 29.93 in 10.0 mi SSE 9.2 mph - N/A   Mostly Cloudy
4:54 AM 28.0 °F 18.1 °F 15.1 °F 58% 29.91 in 10.0 mi SSE 11.5 mph - N/A   Overcast
5:54 AM 28.9 °F 20.4 °F 16.0 °F 58% 29.89 in 10.0 mi SSE 9.2 mph - N/A   Overcast
6:54 AM 30.0 °F 21.1 °F 18.0 °F 61% 29.87 in 10.0 mi SSE 10.4 mph - N/A   Mostly Cloudy
7:54 AM 30.9 °F 21.2 °F 19.9 °F 64% 29.86 in 10.0 mi South 12.7 mph - N/A   Clear
8:54 AM 34.0 °F 24.2 °F 21.0 °F 59% 29.82 in 10.0 mi South 15.0 mph 23.0 mph N/A   Clear
9:54 AM 37.0 °F 28.1 °F 21.9 °F 54% 29.83 in 10.0 mi SW 15.0 mph 20.7 mph N/A   Clear
10:54 AM 39.9 °F 31.8 °F 23.0 °F 51% 29.79 in 10.0 mi SSW 15.0 mph 20.7 mph N/A   Scattered Clouds
12:54 PM 42.1 °F 37.1 °F 23.0 °F 47% 29.75 in 10.0 mi SSW 8.1 mph - N/A   Mostly Cloudy
1:54 PM 44.1 °F 37.1 °F 24.1 °F 45% 29.73 in 10.0 mi SSW 15.0 mph 21.9 mph N/A   Clear
2:54 PM 43.0 °F 38.2 °F 24.1 °F 47% 29.73 in 10.0 mi SSW 8.1 mph - N/A   Clear
3:54 PM 43.0 °F 37.2 °F 24.1 °F 47% 29.73 in 10.0 mi SW 10.4 mph 19.6 mph N/A   Clear
4:54 PM 39.9 °F 35.8 °F 24.1 °F 53% 29.75 in 10.0 mi SW 5.8 mph - N/A   Clear
5:54 PM 37.9 °F - 24.1 °F 57% 29.76 in 10.0 mi Calm Calm - N/A   Clear
6:54 PM 36.0 °F 32.1 °F 24.1 °F 62% 29.77 in 10.0 mi ESE 4.6 mph - N/A   Clear
7:54 PM 35.1 °F 30.1 °F 23.0 °F 61% 29.77 in 10.0 mi ESE 5.8 mph - N/A   Partly Cloudy
8:54 PM 35.1 °F 31.0 °F 24.1 °F 64% 29.76 in 10.0 mi ESE 4.6 mph - N/A   Clear
9:54 PM 35.1 °F 31.0 °F 24.1 °F 64% 29.75 in 10.0 mi SE 4.6 mph - N/A   Clear
10:54 PM 33.1 °F 27.7 °F 24.1 °F 70% 29.75 in 10.0 mi SE 5.8 mph - N/A   Clear
11:54 PM 35.1 °F 30.1 °F 25.0 °F 67% 29.74 in 10.0 mi South 5.8 mph - N/A   Clear